H1 CPF 2 NER 2022 5 19 9 139 01 glonass121 H2 1000702 9121 36401 2022 5 19 0 0 0 2022 5 22 23 45 0 900 1 1 0 0 0 1 H9 10 0 59718 0.00000 0 17640180.986 -16208622.290 -8926724.880 10 0 59718 900.00000 0 16723828.962 -15296165.065 -11826423.794 10 0 59718 1800.00000 0 15699688.669 -14026403.871 -14497890.844 10 0 59718 2700.00000 0 14629463.001 -12408243.751 -16889512.051 10 0 59718 3600.00000 0 13573481.577 -10463828.331 -18955016.454 10 0 59718 4500.00000 0 12588106.052 -8227874.130 -20654360.146 10 0 59718 5400.00000 0 11723314.795 -5746489.902 -21954497.152 10 0 59718 6300.00000 0 11020566.734 -3075526.868 -22830022.908 10 0 59718 7200.00000 0 10511033.314 -278524.905 -23263677.955 10 0 59718 8100.00000 0 10214272.799 2575663.696 -23246701.570 10 0 59718 9000.00000 0 10137403.584 5415477.702 -22779027.257 10 0 59718 9900.00000 0 10274813.044 8169372.323 -21869314.473 10 0 59718 10800.00000 0 10608416.617 10768555.485 -20534813.692 10 0 59718 11700.00000 0 11108459.045 13149622.396 -18801064.740 10 0 59718 12600.00000 0 11734826.951 15256978.834 -16701431.533 10 0 59718 13500.00000 0 12438819.987 17044951.420 -14276479.598 10 0 59718 14400.00000 0 13165307.796 18479495.160 -11573206.210 10 0 59718 15300.00000 0 13855182.679 19539424.726 -8644136.442 10 0 59718 16200.00000 0 14448004.276 20217115.620 -5546301.830 10 0 59718 17100.00000 0 14884723.184 20518643.730 -2340121.404 10 0 59718 18000.00000 0 15110366.065 20463355.822 911792.177 10 0 59718 18900.00000 0 15076565.609 20082888.341 4145876.532 10 0 59718 19800.00000 0 14743824.793 19419676.110 7298886.996 10 0 59718 20700.00000 0 14083416.139 18525015.080 10309160.039 10 0 59718 21600.00000 0 13078832.426 17456763.054 13117845.198 10 0 59718 22500.00000 0 11726724.977 16276778.257 15670078.707 10 0 59718 23400.00000 0 10037288.247 15048207.058 17916073.457 10 0 59718 24300.00000 0 8034073.744 13832738.416 19812102.248 10 0 59718 25200.00000 0 5753241.335 12687943.548 21321354.095 10 0 59718 26100.00000 0 3242280.412 11664814.922 22414646.554 10 0 59718 27000.00000 0 558256.135 10805609.244 23070980.777 10 0 59718 27900.00000 0 -2234344.136 10142085.079 23277929.683 10 0 59718 28800.00000 0 -5066072.345 9694208.093 23031853.499 10 0 59718 29700.00000 0 -7865185.231 9469376.229 22337940.652 10 0 59718 30600.00000 0 -10560402.009 9462194.553 21210075.619 10 0 59718 31500.00000 0 -13083639.438 9654806.031 19670538.648 10 0 59718 32400.00000 0 -15372611.481 10017761.073 17749545.426 10 0 59718 33300.00000 0 -17373187.237 10511386.284 15484637.476 10 0 59718 34200.00000 0 -19041411.515 11087592.441 12919936.664 10 0 59718 35100.00000 0 -20345107.095 11692043.913 10105279.258 10 0 59718 36000.00000 0 -21264995.319 12266597.432 7095246.809 10 0 59718 36900.00000 0 -21795291.667 12751907.546 3948112.709 10 0 59718 37800.00000 0 -21943754.633 13090089.901 724724.331 10 0 59718 38700.00000 0 -21731188.468 13227331.588 -2512658.570 10 0 59718 39600.00000 0 -21190422.452 13116340.469 -5701547.913 10 0 59718 40500.00000 0 -20364810.413 12718532.254 -8780412.544 10 0 59718 41400.00000 0 -19306313.434 12005864.985 -11689843.622 10 0 59718 42300.00000 0 -18073245.261 10962245.039 -14373679.465 10 0 59718 43200.00000 0 -16727773.373 9584446.049 -16780070.135 10 0 59718 44100.00000 0 -15333278.353 7882501.760 -18862463.036 10 0 59718 45000.00000 0 -13951679.897 5879555.031 -20580492.020 10 0 59718 45900.00000 0 -12640839.201 3611166.936 -21900754.065 10 0 59718 46800.00000 0 -11452144.536 1124111.671 -22797459.228 10 0 59718 47700.00000 0 -10428379.777 -1525296.094 -23252941.400 10 0 59718 48600.00000 0 -9601964.547 -4273275.749 -23258019.458 10 0 59718 49500.00000 0 -8993639.910 -7050974.712 -22812200.635 10 0 59718 50400.00000 0 -8611655.834 -9787085.641 -21923720.358 10 0 59718 51300.00000 0 -8451496.297 -12410580.806 -20609415.505 10 0 59718 52200.00000 0 -8496155.925 -14853451.674 -18894430.854 10 0 59718 53100.00000 0 -8716959.090 -17053340.259 -16811761.712 10 0 59718 54000.00000 0 -9074889.445 -18955952.264 -14401638.942 10 0 59718 54900.00000 0 -9522375.859 -20517149.944 -11710766.000 10 0 59718 55800.00000 0 -10005460.638 -21704635.135 -8791421.182 10 0 59718 56700.00000 0 -10466258.724 -22499149.536 -5700441.545 10 0 59718 57600.00000 0 -10845603.080 -22895139.452 -2498108.185 10 0 59718 58500.00000 0 -11085762.460 -22900854.916 753044.580 10 0 59718 59400.00000 0 -11133113.813 -22537877.640 3989471.314 10 0 59718 60300.00000 0 -10940652.770 -21840097.128 7147882.402 10 0 59718 61200.00000 0 -10470232.390 -20852178.629 10166508.319 10 0 59718 62100.00000 0 -9694431.919 -19627589.086 12986333.703 10 0 59718 63000.00000 0 -8597973.543 -18226266.628 15552274.399 10 0 59718 63900.00000 0 -7178625.067 -16712034.813 17814272.008 10 0 59718 64800.00000 0 -5447549.097 -15149873.658 19728282.791 10 0 59718 65700.00000 0 -3429083.633 -13603165.279 21257140.554 10 0 59718 66600.00000 0 -1159963.858 -12131032.364 22371276.333 10 0 59718 67500.00000 0 1311981.028 -10785882.856 23049281.379 10 0 59718 68400.00000 0 3929599.718 -9611264.374 23278303.687 10 0 59718 69300.00000 0 6628583.530 -8640117.736 23054272.075 10 0 59718 70200.00000 0 9339932.005 -7893501.108 22381945.677 10 0 59718 71100.00000 0 11992615.470 -7379835.571 21274790.200 10 0 59718 72000.00000 0 14516323.096 -7094700.539 19754685.745 10 0 59718 72900.00000 0 16844182.407 -7021183.993 17851474.082 10 0 59718 73800.00000 0 18915338.277 -7130769.325 15602356.045 10 0 59718 74700.00000 0 20677285.890 -7384718.438 13051152.297 10 0 59718 75600.00000 0 22087863.194 -7735890.446 10247442.816 10 0 59718 76500.00000 0 23116822.825 -8130917.850 7245602.315 10 0 59718 77400.00000 0 23746921.102 -8512647.835 4103750.377 10 0 59718 78300.00000 0 23974481.755 -8822746.056 882636.181 10 0 59718 79200.00000 0 23809413.522 -9004354.114 -2355521.509 10 0 59718 80100.00000 0 23274682.961 -9004690.293 -5548217.840 10 0 59718 81000.00000 0 22405265.817 -8777485.749 -8633847.566 10 0 59718 81900.00000 0 21246621.217 -8285155.385 -11552871.883 10 0 59718 82800.00000 0 19852752.065 -7500613.526 -14248945.703 10 0 59718 83700.00000 0 18283931.504 -6408658.990 -16669985.588 10 0 59718 84600.00000 0 16604188.617 -5006871.431 -18769159.586 10 0 59718 85500.00000 0 14878656.224 -3305980.565 -20505781.371 10 0 59719 0.00000 0 13170889.336 -1329691.156 -21846092.611 10 0 59719 900.00000 0 11540263.131 886032.799 -22763919.807 10 0 59719 1800.00000 0 10039559.641 3294195.484 -23241191.330 10 0 59719 2700.00000 0 8712839.696 5838464.564 -23268306.573 10 0 59719 3600.00000 0 7593690.958 8455265.199 -22844347.021 10 0 59719 4500.00000 0 6703924.830 11076190.305 -21977124.173 10 0 59719 5400.00000 0 6052778.094 13630629.819 -20683060.958 10 0 59719 6300.00000 0 5636654.565 16048511.853 -18986906.316 10 0 59719 7200.00000 0 5439419.799 18263042.742 -16921285.710 10 0 59719 8100.00000 0 5433238.737 20213331.897 -14526093.660 10 0 59719 9000.00000 0 5579923.020 21846790.953 -11847737.719 10 0 59719 9900.00000 0 5832732.647 23121204.959 -8938246.923 10 0 59719 10800.00000 0 6138556.498 24006386.469 -5854261.034 10 0 59719 11700.00000 0 6440379.165 24485340.417 -2655920.105 10 0 59719 12600.00000 0 6679928.311 24554888.242 594323.195 10 0 59719 13500.00000 0 6800388.078 24225722.961 3832943.780 10 0 59719 14400.00000 0 6749060.516 23521891.597 6996610.503 10 0 59719 15300.00000 0 6479858.785 22479726.496 10023451.152 10 0 59719 16200.00000 0 5955522.963 21146271.345 12854288.592 10 0 59719 17100.00000 0 5149461.384 19577269.935 15433821.164 10 0 59719 18000.00000 0 4047137.013 17834804.880 17711721.764 10 0 59719 18900.00000 0 2646938.447 15984688.580 19643632.378 10 0 59719 19800.00000 0 960497.910 14093719.042 21192033.516 10 0 59719 20700.00000 0 -987557.070 12226918.509 22326971.207 10 0 59719 21600.00000 0 -3160407.070 10444872.653 23026627.893 10 0 59719 22500.00000 0 -5510364.140 8801282.813 23277727.249 10 0 59719 23400.00000 0 -7980657.966 7340833.718 23075766.788 10 0 59719 24300.00000 0 -10507608.410 6097464.627 22425075.886 10 0 59719 25200.00000 0 -13023092.324 5093113.944 21338700.444 10 0 59719 26100.00000 0 -15457200.731 4336986.729 19838118.806 10 0 59719 27000.00000 0 -17740975.429 3825372.111 17952796.677 10 0 59719 27900.00000 0 -19809111.604 3542014.407 15719591.582 10 0 59719 28800.00000 0 -21602515.099 3459018.757 13182019.979 10 0 59719 29700.00000 0 -23070609.870 3538250.083 10389402.303 10 0 59719 30600.00000 0 -24173301.998 3733164.160 7395903.043 10 0 59719 31500.00000 0 -24882521.134 3990992.289 4259484.570 10 0 59719 32400.00000 0 -25183277.964 4255187.003 1040794.556 10 0 59719 33300.00000 0 -25074196.191 4468026.125 -2197992.395 10 0 59719 34200.00000 0 -24567498.946 4573266.529 -5394357.629 10 0 59719 35100.00000 0 -23688451.722 4518737.316 -8486624.589 10 0 59719 36000.00000 0 -22474285.754 4258764.936 -11415127.073 10 0 59719 36900.00000 0 -20972646.689 3756329.862 -14123338.915 10 0 59719 37800.00000 0 -19239632.321 2984865.324 -16558945.235 10 0 59719 38700.00000 0 -17337499.600 1929623.122 -18674836.460 10 0 59719 39600.00000 0 -15332134.423 588548.967 -20430007.448 10 0 59719 40500.00000 0 -13290387.215 -1027370.606 -21790345.683 10 0 59719 41400.00000 0 -11277382.882 -2894306.464 -22729294.077 10 0 59719 42300.00000 0 -9353915.105 -4976324.979 -23228375.713 10 0 59719 43200.00000 0 -7574031.838 -7226638.856 -23277569.966 10 0 59719 44100.00000 0 -5982911.688 -9589322.565 -22875531.578 10 0 59719 45000.00000 0 -4615119.604 -12001424.726 -22029646.683 10 0 59719 45900.00000 0 -3493315.324 -14395393.032 -20755922.458 10 0 59719 46800.00000 0 -2627469.839 -16701713.482 -19078709.866 10 0 59719 47700.00000 0 -2014624.586 -18851655.635 -17030262.144 10 0 59719 48600.00000 0 -1639205.477 -20780010.054 -14650134.907 10 0 59719 49500.00000 0 -1473880.553 -22427703.097 -11984437.153 10 0 59719 50400.00000 0 -1480926.773 -23744178.068 -9084945.995 10 0 59719 51300.00000 0 -1614049.193 -24689440.675 -6008101.298 10 0 59719 52200.00000 0 -1820575.688 -25235680.112 -2813899.573 10 0 59719 53100.00000 0 -2043933.466 -25368394.702 435290.519 10 0 59719 54000.00000 0 -2226300.532 -25086972.158 3675966.462 10 0 59719 54900.00000 0 -2311317.037 -24404698.009 6844757.655 10 0 59719 55800.00000 0 -2246738.282 -23348190.797 9879691.157 10 0 59719 56700.00000 0 -1986913.398 -21956287.786 12721429.907 10 0 59719 57600.00000 0 -1494981.285 -20278429.142 15314456.446 10 0 59719 58500.00000 0 -744687.927 -18372610.500 17608176.514 10 0 59719 59400.00000 0 278254.003 -16302992.570 19557919.160 10 0 59719 60300.00000 0 1575321.985 -14137270.989 21125812.683 10 0 59719 61200.00000 0 3134892.878 -11943919.533 22281518.913 10 0 59719 62100.00000 0 4932516.285 -9789424.417 23002811.970 10 0 59719 63000.00000 0 6931739.417 -7735626.846 23275991.389 10 0 59719 63900.00000 0 9085447.175 -5837285.429 23096123.240 10 0 59719 64800.00000 0 11337659.515 -4139959.531 22467106.722 10 0 59719 65700.00000 0 13625709.263 -2678300.153 21401567.256 10 0 59719 66600.00000 0 15882707.992 -1474816.986 19920580.527 10 0 59719 67500.00000 0 18040196.318 -539169.615 18053235.074 10 0 59719 68400.00000 0 20030868.015 131991.417 15836043.818 10 0 59719 69300.00000 0 21791254.996 554630.949 13312217.535 10 0 59719 70200.00000 0 23264262.629 756403.148 10530815.445 10 0 59719 71100.00000 0 24401451.658 775235.012 7545789.936 10 0 59719 72000.00000 0 25164973.899 657481.153 4414944.093 10 0 59719 72900.00000 0 25529083.522 455728.812 1198821.819 10 0 59719 73800.00000 0 25481163.337 226345.849 -2040448.848 10 0 59719 74700.00000 0 25022225.361 26874.434 -5240337.950 10 0 59719 75600.00000 0 24166866.399 -86620.939 -8339100.111 10 0 59719 76500.00000 0 22942681.356 -62141.044 -11276944.173 10 0 59719 77400.00000 0 21389158.841 145832.076 -13997165.211 10 0 59719 78300.00000 0 19556104.369 574190.789 -16447219.076 10 0 59719 79200.00000 0 17501655.356 1249418.358 -18579720.576 10 0 59719 80100.00000 0 15289968.501 2186240.730 -20353347.601 10 0 59719 81000.00000 0 12988673.321 3386770.782 -21733635.044 10 0 59719 81900.00000 0 10666195.109 4840182.438 -22693644.002 10 0 59719 82800.00000 0 8389056.203 6522930.720 -23214493.477 10 0 59719 83700.00000 0 6219265.691 8399511.771 -23285743.936 10 0 59719 84600.00000 0 4211904.574 10423734.937 -22905624.185 10 0 59719 85500.00000 0 2413006.262 12540457.633 -22081095.437 10 0 59720 0.00000 0 857820.811 14687714.245 -20827749.269 10 0 59720 900.00000 0 -430464.625 16799154.582 -19169538.003 10 0 59720 1800.00000 0 -1441492.154 18806689.466 -17138341.827 10 0 59720 2700.00000 0 -2177955.202 20643238.096 -14773376.054 10 0 59720 3600.00000 0 -2655262.881 22245459.430 -12120449.268 10 0 59720 4500.00000 0 -2900659.891 23556353.263 -9231084.373 10 0 59720 5400.00000 0 -2951837.726 24527619.660 -6161518.669 10 0 59720 6300.00000 0 -2855095.343 25121674.930 -2971602.156 10 0 59720 7200.00000 0 -2663127.523 25313236.202 276383.718 10 0 59720 8100.00000 0 -2432536.024 25090404.924 3518962.357 10 0 59720 9000.00000 0 -2221171.280 24455201.022 6692727.106 10 0 59720 9900.00000 0 -2085420.359 23423523.384 9735607.660 10 0 59720 10800.00000 0 -2077559.558 22024537.501 12588110.267 10 0 59720 11700.00000 0 -2243287.271 20299516.245 15194504.718 10 0 59720 12600.00000 0 -2619544.794 18300183.800 17503932.411 10 0 59720 13500.00000 0 -3232719.782 16086634.368 19471411.989 10 0 59720 14400.00000 0 -4097310.040 13724915.534 21058721.758 10 0 59720 15300.00000 0 -5215104.779 11284380.276 22235141.189 10 0 59720 16200.00000 0 -6574917.718 8834920.898 22978037.526 10 0 59720 17100.00000 0 -8152882.293 6444202.285 23273287.138 10 0 59720 18000.00000 0 -9913295.006 4175011.016 23115525.113 10 0 59720 18900.00000 0 -11809969.626 2082830.783 22508220.372 10 0 59720 19800.00000 0 -13788043.621 213743.951 21463577.146 10 0 59720 20700.00000 0 -15786159.423 -1397255.474 20002267.147 10 0 59720 21600.00000 0 -17738928.138 -2727470.317 18152999.835 10 0 59720 22500.00000 0 -19579572.135 -3767183.494 15951941.065 10 0 59720 23400.00000 0 -21242636.182 -4519791.524 13441993.012 10 0 59720 24300.00000 0 -22666654.781 -5001386.689 10671950.392 10 0 59720 25200.00000 0 -23796665.777 -5239808.953 7695549.972 10 0 59720 26100.00000 0 -24586467.200 -5273210.227 4570431.905 10 0 59720 27000.00000 0 -25000525.342 -5148193.321 1357032.683 10 0 59720 27900.00000 0 -25015456.664 -4917604.874 -1882569.781 10 0 59720 28800.00000 0 -24621023.709 -4638075.168 -5085837.638 10 0 59720 29700.00000 0 -23820605.081 -4367407.702 -8190959.916 10 0 59720 30600.00000 0 -22631120.886 -4161927.039 -11138023.498 10 0 59720 31500.00000 0 -21082417.002 -4073894.874 -13870147.436 10 0 59720 32400.00000 0 -19216133.296 -4149101.291 -16334560.749 10 0 59720 33300.00000 0 -17084101.545 -4424731.052 -18483604.699 10 0 59720 34200.00000 0 -14746337.773 -4927593.610 -20275641.842 10 0 59720 35100.00000 0 -12268709.921 -5672791.019 -21675855.615 10 0 59720 36000.00000 0 -9720374.963 -6662880.422 -22656925.867 10 0 59720 36900.00000 0 -7171089.186 -7887567.907 -23199567.505 10 0 59720 37800.00000 0 -4688500.769 -9323949.204 -23292921.485 10 0 59720 38700.00000 0 -2335535.063 -10937290.499 -22934789.516 10 0 59720 39600.00000 0 -167980.003 -12682320.409 -22131706.250 10 0 59720 40500.00000 0 1767628.442 -14504982.912 -20898845.318 10 0 59720 41400.00000 0 3435732.448 -16344581.453 -19259758.426 10 0 59720 42300.00000 0 4813016.946 -18136227.255 -17245949.804 10 0 59720 43200.00000 0 5889158.317 -19813491.256 -14896291.547 10 0 59720 44100.00000 0 6667023.908 -21311149.249 -12256288.760 10 0 59720 45000.00000 0 7162312.115 -22567904.511 -9377207.018 10 0 59720 45900.00000 0 7402646.737 -23528972.006 -6315077.945 10 0 59720 46800.00000 0 7426162.934 -24148412.980 -3129601.988 10 0 59720 47700.00000 0 7279644.467 -24391118.536 117029.512 10 0 59720 48600.00000 0 7016291.988 -24234355.394 3361368.596 10 0 59720 49500.00000 0 6693218.761 -23668805.567 6539975.036 10 0 59720 50400.00000 0 6368782.553 -22699053.650 9590683.391 10 0 59720 51300.00000 0 6099870.026 -21343499.563 12453845.170 10 0 59720 52200.00000 0 5939252.098 -19633699.775 15073519.075 10 0 59720 53100.00000 0 5933125.563 -17613165.253 17398583.494 10 0 59720 54000.00000 0 6118947.832 -15335667.983 19383747.663 10 0 59720 54900.00000 0 6523658.376 -12863129.222 20990440.529 10 0 59720 55800.00000 0 7162363.110 -10263180.440 22187559.493 10 0 59720 56700.00000 0 8037537.376 -7606501.417 22952064.835 10 0 59720 57600.00000 0 9138780.352 -4964048.722 23269409.337 10 0 59720 58500.00000 0 10443129.736 -2404291.644 23133796.373 10 0 59720 59400.00000 0 11915921.530 9428.837 22548263.579 10 0 59720 60300.00000 0 13512156.699 2221308.703 21524592.775 10 0 59720 61200.00000 0 15178315.308 4185158.495 20083050.298 10 0 59720 62100.00000 0 16854540.436 5866066.076 18251964.986 10 0 59720 63000.00000 0 18477099.280 7241578.698 16067153.980 10 0 59720 63900.00000 0 19981017.937 8302358.933 13571209.096 10 0 59720 64800.00000 0 21302779.904 9052291.165 10812658.708 10 0 59720 65700.00000 0 22382976.335 9508038.036 7845022.018 10 0 59720 66600.00000 0 23168798.714 9698068.724 4725774.232 10 0 59720 67500.00000 0 23616271.589 9661202.420 1515242.319 10 0 59720 68400.00000 0 23692134.075 9444729.814 -1724548.081 10 0 59720 69300.00000 0 23375293.440 9102192.225 -4931053.383 10 0 59720 70200.00000 0 22657791.731 8690911.547 -8042399.127 10 0 59720 71100.00000 0 21545246.146 8269373.935 -10998552.237 10 0 59720 72000.00000 0 20056745.252 7894575.732 -13742457.620 10 0 59720 72900.00000 0 18224204.967 7619441.466 -16221119.166 10 0 59720 73800.00000 0 16091209.939 7490420.709 -18386606.163 10 0 59720 74700.00000 0 13711386.644 7545363.338 -20196967.270 10 0 59720 75600.00000 0 11146373.253 7811761.627 -21617035.810 10 0 59720 76500.00000 0 8463467.665 8305432.924 -22619111.650 10 0 59720 77400.00000 0 5733048.319 9029699.120 -23183506.775 10 0 59720 78300.00000 0 3025871.878 9975099.144 -23298943.671 10 0 59720 79200.00000 0 410357.390 11119649.249 -22962797.805 10 0 59720 80100.00000 0 -2050032.134 12429643.479 -22181177.820 10 0 59720 81000.00000 0 -4299203.006 13860964.371 -20968839.734 10 0 59720 81900.00000 0 -6290538.896 15360852.572 -19348934.185 10 0 59720 82800.00000 0 -7988615.047 16870064.236 -17352588.859 10 0 59720 83700.00000 0 -9370445.879 18325328.081 -15018331.473 10 0 59720 84600.00000 0 -10426212.016 19662000.246 -12391362.069 10 0 59720 85500.00000 0 -11159434.295 20816805.468 -9522686.904 10 0 59721 0.00000 0 -11586585.704 21730548.144 -6468129.875 10 0 59721 900.00000 0 -11736156.496 22350677.438 -3287238.719 10 0 59721 1800.00000 0 -11647210.875 22633594.207 -42112.108 10 0 59721 2700.00000 0 -11367497.411 22546600.769 3203833.609 10 0 59721 3600.00000 0 -10951193.844 22069406.562 6387127.711 10 0 59721 4500.00000 0 -10456384.266 21195123.696 9445512.731 10 0 59721 5400.00000 0 -9942378.432 19930707.989 12319188.528 10 0 59721 6300.00000 0 -9466990.002 18296825.502 14952005.724 10 0 59721 7200.00000 0 -9083892.327 16327149.880 17292582.580 10 0 59721 8100.00000 0 -8840166.617 14067120.697 19295321.620 10 0 59721 9000.00000 0 -8774148.528 11572216.386 20921304.896 10 0 59721 9900.00000 0 -8913665.577 8905816.281 22139049.890 10 0 59721 10800.00000 0 -9274740.227 6136743.474 22925111.727 10 0 59721 11700.00000 0 -9860812.805 3336593.210 23264520.985 10 0 59721 12600.00000 0 -10662515.598 576960.039 23151050.225 10 0 59721 13500.00000 0 -11658005.613 -2073319.951 22587306.167 10 0 59721 14400.00000 0 -12813839.694 -4550797.077 21584648.018 10 0 59721 15300.00000 0 -14086352.776 -6799797.865 20162935.927 10 0 59721 16200.00000 0 -15423479.281 -8774479.433 18350116.712 10 0 59721 17100.00000 0 -16766939.536 -10440465.913 16181656.832 10 0 59721 18000.00000 0 -18054698.441 -11776002.261 13699835.269 10 0 59721 18900.00000 0 -19223592.977 -12772581.303 10952911.155 10 0 59721 19800.00000 0 -20212018.856 -13435021.765 7994182.911 10 0 59721 20700.00000 0 -20962564.719 -13780997.563 4880957.341 10 0 59721 21600.00000 0 -21424485.099 -13840041.122 1673448.329 10 0 59721 22500.00000 0 -21555910.394 -13652064.669 -1566374.359 10 0 59721 23400.00000 0 -21325703.200 -13265462.817 -4775964.972 10 0 59721 24300.00000 0 -20714885.004 -12734876.424 -7893389.047 10 0 59721 25200.00000 0 -19717574.850 -12118711.138 -10858496.897 10 0 59721 26100.00000 0 -18341401.334 -11476513.612 -13614062.441 10 0 59721 27000.00000 0 -16607370.637 -10866313.933 -16106867.354 10 0 59721 27900.00000 0 -14549195.053 -10342043.992 -18288711.527 10 0 59721 28800.00000 0 -12212108.221 -9951138.414 -20117331.900 10 0 59721 29700.00000 0 -9651213.853 -9732417.398 -21557213.350 10 0 59721 30600.00000 0 -6929433.500 -9714339.548 -22580276.870 10 0 59721 31500.00000 0 -4115135.347 -9913698.120 -23166432.011 10 0 59721 32400.00000 0 -1279539.129 -10334816.368 -23303982.661 10 0 59721 33300.00000 0 1505998.216 -10969277.660 -22989877.311 10 0 59721 34200.00000 0 4172705.824 -11796204.344 -22229797.325 10 0 59721 35100.00000 0 6657019.747 -12783076.864 -21038079.358 10 0 59721 36000.00000 0 8902993.194 -13887062.122 -19437470.804 10 0 59721 36900.00000 0 10864395.601 -15056798.493 -17458720.261 10 0 59721 37800.00000 0 12506412.051 -16234565.145 -15140008.215 10 0 59721 38700.00000 0 13806870.451 -17358746.206 -12526226.511 10 0 59721 39600.00000 0 14756943.025 -18366486.743 -9668118.720 10 0 59721 40500.00000 0 15361290.767 -19196428.152 -6621296.931 10 0 59721 41400.00000 0 15637643.091 -19791405.968 -3445153.668 10 0 59721 42300.00000 0 15615829.322 -20100993.668 -201690.797 10 0 59721 43200.00000 0 15336302.732 -20083781.798 3045710.417 10 0 59721 44100.00000 0 14848220.256 -19709292.669 6233552.011 10 0 59721 45000.00000 0 14207160.818 -18959446.358 9299487.417 10 0 59721 45900.00000 0 13472581.387 -17829513.259 12183567.376 10 0 59721 46800.00000 0 12705121.439 -16328510.902 14829436.500 10 0 59721 47700.00000 0 11963873.245 -14479027.217 17185454.509 10 0 59721 48600.00000 0 11303736.458 -12316477.620 19205718.304 10 0 59721 49500.00000 0 10772971.474 -9887827.940 20850963.631 10 0 59721 50400.00000 0 10411056.629 -7249838.360 22089328.179 10 0 59721 51300.00000 0 10246940.454 -4466903.898 22896961.594 10 0 59721 52200.00000 0 10297762.455 -1608583.690 23258471.518 10 0 59721 53100.00000 0 10568095.048 1253075.910 23167198.608 10 0 59721 54000.00000 0 11049736.603 4046311.689 22625317.263 10 0 59721 54900.00000 0 11722061.738 6702391.624 21643762.411 10 0 59721 55800.00000 0 12552911.424 9158226.759 20241986.161 10 0 59721 56700.00000 0 13499982.814 11358739.788 18447551.289 10 0 59721 57600.00000 0 14512658.157 13258894.223 16295571.457 10 0 59721 58500.00000 0 15534194.223 14825302.752 13828010.621 10 0 59721 59400.00000 0 16504179.387 16037351.417 11092856.423 10 0 59721 60300.00000 0 17361154.941 16887796.539 8143184.213 10 0 59721 61200.00000 0 18045291.154 17382813.088 5036130.097 10 0 59721 62100.00000 0 18501006.867 17541495.734 1831792.582 10 0 59721 63000.00000 0 18679424.317 17394836.077 -1407916.700 10 0 59721 63900.00000 0 18540557.965 16984220.579 -4620451.982 10 0 59721 64800.00000 0 18055147.297 16359513.056 -7743820.815 10 0 59721 65700.00000 0 17206058.236 15576802.019 -10717758.735 10 0 59721 66600.00000 0 15989195.340 14695906.497 -13484870.294 10 0 59721 67500.00000 0 14413886.812 13777743.457 -15991716.367 10 0 59721 68400.00000 0 12502725.493 12881665.368 -18189828.666 10 0 59721 69300.00000 0 10290870.943 12062877.586 -20036633.480 10 0 59721 70200.00000 0 7824839.292 11370042.061 -21496268.205 10 0 59721 71100.00000 0 5160828.151 10843166.482 -22540275.838 10 0 59721 72000.00000 0 2362642.832 10511866.734 -23148164.313 10 0 59721 72900.00000 0 -500693.610 10394075.678 -23307819.635 10 0 59721 73800.00000 0 -3357550.769 10495253.487 -23015763.880 10 0 59721 74700.00000 0 -6136416.200 10808134.585 -22277251.455 10 0 59721 75600.00000 0 -8768624.799 11313024.361 -21106199.658 10 0 59721 76500.00000 0 -11190980.156 11978636.213 -19524952.264 10 0 59721 77400.00000 0 -13348159.114 12763436.782 -17563878.004 10 0 59721 78300.00000 0 -15194798.779 13617445.522 -15260808.951 10 0 59721 79200.00000 0 -16697177.466 14484414.977 -12660327.195 10 0 59721 80100.00000 0 -17834417.267 15304301.006 -9812911.771 10 0 59721 81000.00000 0 -18599155.683 16015918.825 -6773961.125 10 0 59721 81900.00000 0 -18997656.067 16559671.607 -3602709.710 10 0 59721 82800.00000 0 -19049350.600 16880234.199 -361060.405 10 0 59721 83700.00000 0 -18785834.270 16929075.509 2887643.181 10 0 59721 84600.00000 0 -18249352.435 16666709.446 6079878.513 10 0 59721 85500.00000 0 -17490846.951 16064575.654 9153212.662 99